Weather History for Plant City, FL

Change the Weather History Date:

Wednesday, November 21, 2012

  Actual Average Record
Temperature  
Mean Temperature 64 °F -  
Max Temperature 75 °F 77 °F 88 °F (1948)
Min Temperature 53 °F 55 °F 30 °F (1937)
Degree Days  
Heating Degree Days 1    
Growing Degree Days 14 (Base 50)    
Moisture  
Dew Point 48 °F    
Average Humidity 56    
Maximum Humidity 88    
Minimum Humidity 29    
Precipitation  
Precipitation 0.00 in - - ()
Sea Level Pressure  
Sea Level Pressure 30.08 in    
Wind  
Wind Speed 3 mph (North)    
Max Wind Speed 13 mph    
Max Gust Speed 18 mph    
Visibility 9 miles    
Events      
Averages and records for this station are not official NWS values.
T = Trace of Precipitation, MM = Missing Value Source: NWS Daily Summary

Daily Weather History Graph

Daily Weather History Graph

Search for Another Location

Airport:

Trip Planner

Search our weather history database for the weather conditions in past years. The results will help you decide how hot, cold, wet, or windy it might be!

Date:

Astronomy

Nov. 21, 2012 Rise Set
Actual Time 6:55 AM EST 5:33 PM EST
Civil Twilight 6:30 AM EST 5:58 PM EST
Nautical Twilight 6:01 AM EST 6:27 PM EST
Astronomical Twilight 5:33 AM EST 6:55 PM EST
Moon 1:21 PM EST (11/21) 12:44 AM EST (11/21)
Length of Visible Light 11h 28m
Length of Day
10h 38m
First Quarter, 61% of the Moon is Illuminated
Nov 21
First Quarter
Nov 28
Full
Dec 6
Last Quarter
Dec 13
New
Dec 20
First Quarter

Hourly Weather History & Observations

Time (EST) Temp. Dew Point Humidity Pressure Visibility Wind Dir Wind Speed Gust Speed Precip Events Conditions
12:15 AM 57.2 °F - N/A% 30.07 in 10.0 mi Calm Calm - N/A   Clear
12:35 AM 55.4 °F - N/A% 30.06 in 5.0 mi Calm Calm - N/A   Haze
12:55 AM 55.4 °F - N/A% 30.06 in 7.0 mi North 3.5 mph - N/A   Clear
1:15 AM 55.4 °F - N/A% 30.06 in 7.0 mi NNW 3.5 mph - N/A   Clear
1:35 AM 55.4 °F - N/A% 30.06 in 2.5 mi North 3.5 mph - N/A   Clear
1:55 AM 55.4 °F - N/A% 30.06 in 7.0 mi Calm Calm - N/A   Clear
2:15 AM 55.4 °F - N/A% 30.05 in 7.0 mi North 3.5 mph - N/A   Clear
2:35 AM 55.4 °F - N/A% 30.05 in 7.0 mi Calm Calm - N/A   Clear
2:55 AM 55.4 °F - N/A% 30.04 in 7.0 mi Calm Calm - N/A   Clear
3:15 AM 53.6 °F - N/A% 30.05 in 5.0 mi Calm Calm - N/A   Haze
3:35 AM 55.4 °F - N/A% 30.05 in 7.0 mi NNW 3.5 mph - N/A   Scattered Clouds
3:55 AM 55.4 °F - N/A% 30.05 in 5.0 mi Calm Calm - N/A   Haze
4:15 AM 55.4 °F - N/A% 30.05 in 7.0 mi NNW 3.5 mph - N/A   Clear
4:35 AM 53.6 °F - N/A% 30.06 in 7.0 mi Calm Calm - N/A   Clear
4:55 AM 53.6 °F - N/A% 30.06 in 7.0 mi NNW 4.6 mph - N/A   Clear
5:15 AM 53.6 °F - N/A% 30.07 in 7.0 mi Calm Calm - N/A   Clear
5:35 AM 53.6 °F - N/A% 30.07 in 7.0 mi Calm Calm - N/A   Clear
5:55 AM 53.6 °F - N/A% 30.07 in 7.0 mi Calm Calm - N/A   Clear
6:15 AM 53.6 °F - N/A% 30.07 in 10.0 mi Calm Calm - N/A   Scattered Clouds
6:35 AM 53.6 °F - N/A% 30.08 in 7.0 mi NNW 3.5 mph - N/A   Clear
6:55 AM 53.6 °F - N/A% 30.08 in 10.0 mi NNW 3.5 mph - N/A   Clear
7:15 AM 53.6 °F - N/A% 30.09 in 10.0 mi Calm Calm - N/A   Clear
7:35 AM 55.4 °F - N/A% 30.09 in 10.0 mi North 3.5 mph - N/A   Clear
7:55 AM 55.4 °F - N/A% 30.09 in 10.0 mi North 3.5 mph - N/A   Clear
8:15 AM 57.2 °F - N/A% 30.10 in 10.0 mi North 4.6 mph - N/A   Clear
8:35 AM 59.0 °F - N/A% 30.11 in 10.0 mi North 4.6 mph - N/A   Clear
8:55 AM 60.8 °F - N/A% 30.11 in 10.0 mi North - - N/A   Clear
9:15 AM 62.6 °F 55.4 °F 77% 30.12 in 10.0 mi North 6.9 mph - N/A   Clear
9:35 AM 64.4 °F 53.6 °F 68% 30.12 in 10.0 mi North 8.1 mph - N/A   Clear
9:55 AM 66.2 °F 53.6 °F 64% 30.12 in 10.0 mi North 6.9 mph - N/A   Clear
10:15 AM 68.0 °F 51.8 °F 56% 30.12 in 10.0 mi NNE 8.1 mph - N/A   Scattered Clouds
10:35 AM 68.0 °F 51.8 °F 56% 30.12 in 10.0 mi North 8.1 mph - N/A   Scattered Clouds
10:55 AM 69.8 °F 51.8 °F 53% 30.11 in 10.0 mi North 8.1 mph - N/A   Scattered Clouds
11:15 AM 71.6 °F 51.8 °F 50% 30.10 in 10.0 mi North 9.2 mph - N/A   Scattered Clouds
11:35 AM 71.6 °F 51.8 °F 50% 30.09 in 10.0 mi NNE 9.2 mph - N/A   Scattered Clouds
11:55 AM 71.6 °F 48.2 °F 43% 30.09 in 10.0 mi NNE 10.4 mph - N/A   Scattered Clouds
12:15 PM 71.6 °F 46.4 °F 41% 30.08 in 10.0 mi North 12.7 mph 16.1 mph N/A   Scattered Clouds
12:35 PM 73.4 °F 48.2 °F 41% 30.07 in 10.0 mi North 10.4 mph 18.4 mph N/A   Scattered Clouds
12:55 PM 73.4 °F 46.4 °F 38% 30.07 in 10.0 mi North 12.7 mph 17.3 mph N/A   Scattered Clouds
1:15 PM 73.4 °F 41.0 °F 31% 30.06 in 10.0 mi North 12.7 mph 16.1 mph N/A   Clear
1:35 PM 73.4 °F 41.0 °F 31% 30.05 in 10.0 mi North 6.9 mph 17.3 mph N/A   Clear
1:55 PM 73.4 °F 42.8 °F 33% 30.04 in 10.0 mi NNE 10.4 mph - N/A   Clear
2:15 PM 73.4 °F 42.8 °F 33% 30.04 in 10.0 mi NNE 8.1 mph - N/A   Clear
2:35 PM 73.4 °F 42.8 °F 33% 30.04 in 10.0 mi NNE 5.8 mph - N/A   Clear
2:55 PM 73.4 °F 41.0 °F 31% 30.03 in 10.0 mi North 6.9 mph - N/A   Clear
3:15 PM 75.2 °F 41.0 °F 29% 30.02 in 10.0 mi NNE 8.1 mph - N/A   Clear
3:35 PM 75.2 °F 41.0 °F 29% 30.03 in 10.0 mi NNW 10.4 mph - N/A   Clear
3:55 PM 73.4 °F 42.8 °F 33% 30.03 in 10.0 mi NNW 8.1 mph - N/A   Clear
4:15 PM 73.4 °F 42.8 °F 33% 30.03 in 10.0 mi North 4.6 mph - N/A   Clear
4:35 PM 73.4 °F 42.8 °F 33% 30.03 in 10.0 mi North 6.9 mph - N/A   Clear
4:55 PM 71.6 °F 42.8 °F 35% 30.03 in 10.0 mi North 4.6 mph - N/A   Clear
5:15 PM 71.6 °F 44.6 °F 38% 30.04 in 10.0 mi North 4.6 mph - N/A   Clear
5:35 PM 69.8 °F 44.6 °F 40% 30.04 in 10.0 mi North 4.6 mph - N/A   Clear
5:55 PM 68.0 °F 44.6 °F 43% 30.05 in 10.0 mi North 3.5 mph - N/A   Clear
6:15 PM 66.2 °F 46.4 °F 49% 30.05 in 10.0 mi NNW 4.6 mph - N/A   Clear
6:35 PM 66.2 °F 50.0 °F 56% 30.05 in 10.0 mi NNW 4.6 mph - N/A   Clear
6:55 PM 64.4 °F 51.8 °F 64% 30.06 in 10.0 mi NW 4.6 mph - N/A   Clear
7:15 PM 64.4 °F 51.8 °F 64% 30.07 in 10.0 mi NNW 8.1 mph - N/A   Clear
7:35 PM 64.4 °F 51.8 °F 64% 30.08 in 10.0 mi NNW 5.8 mph - N/A   Clear
7:55 PM 62.6 °F 51.8 °F 68% 30.08 in 10.0 mi NNW 4.6 mph - N/A   Clear
8:15 PM 62.6 °F 51.8 °F 68% 30.09 in 10.0 mi NNE 4.6 mph - N/A   Clear
8:35 PM 60.8 °F 53.6 °F 77% 30.09 in 10.0 mi Calm Calm - N/A   Clear
8:55 PM 60.8 °F 53.6 °F 77% 30.10 in 10.0 mi North 3.5 mph - N/A   Clear
9:15 PM 60.8 °F 53.6 °F 77% 30.11 in 10.0 mi North 3.5 mph - N/A   Clear
9:35 PM 57.2 °F 53.6 °F 88% 30.11 in 10.0 mi NNE 3.5 mph - N/A   Clear
9:55 PM 57.2 °F 51.8 °F 82% 30.12 in 10.0 mi Calm Calm - N/A   Clear
10:15 PM 57.2 °F 53.6 °F 88% 30.12 in 10.0 mi Calm Calm - N/A   Clear
10:35 PM 55.4 °F 51.8 °F 88% 30.13 in 10.0 mi Calm Calm - N/A   Clear
10:55 PM 55.4 °F 51.8 °F 88% 30.13 in 10.0 mi Calm Calm - N/A   Clear
11:15 PM 55.4 °F 51.8 °F 88% 30.13 in 10.0 mi Calm Calm - N/A   Clear
11:35 PM 55.4 °F 50.0 °F 82% 30.13 in 10.0 mi Calm Calm - N/A   Clear
11:55 PM 53.6 °F 50.0 °F 88% 30.13 in 10.0 mi North 3.5 mph - N/A   Clear